Location: Chuathbaluk
(61.5726°N, 159.2454°W)
Time: 14:10:56
(UTC+00:00)

DELFI C3 - Pass Details

Date: 26 January 2021
Orbit: 531 x 550 km, 97.4° (Epoch: 04 March)

Event Time Altitude Azimuth Distance (km) Brightness Sun altitude
Exits shadow 03:53:42 14° 74° (ENE) 1,606 ? -9.9°
Maximum altitude 03:55:13 17° 48° (NE) 1,464 ? -10.1°
Drops below altitude 10° 03:57:45 10° 8° (N) 1,845 ? -10.4°
Sets 04:00:30 0° 348° (NNW) 2,744 ? -10.7°
